Preview of NWS' New Version of Forecast
This preview is not operational and should not be used for support decisions.

Regional Weather Roundup (RWR)

Issued by National Weather Service (NWS)

                            
000
ASUS45 KCYS 241310
RWRWY 

WYOMING REGIONAL WEATHER ROUNDUP
NATIONAL WEATHER SERVICE CHEYENNE WY
700 AM MDT MON JUN 24 2019

NOTE:  "FAIR" INDICATES FEW OR NO CLOUDS BELOW 12,000 FEET
WITH NO SIGNIFICANT WEATHER AND/OR OBSTRUCTIONS TO VISIBILITY.

WYZ001-241400-
...YELLOWSTONE NATIONAL PARK...
  
CITY           SKY/WX    TMP DP  RH WIND       PRES   REMARKS
LK YELLOWSTONE   N/A     39  30  70 W5        30.05S                  
W YELLOWSTONE  NOT AVBL                                               

$$
WYZ002>013-054>058-071-098>099-241400-
...NORTHERN WYOMING...
  
CITY           SKY/WX    TMP DP  RH WIND       PRES   REMARKS
JACKSON        CLOUDY    49  32  52 W6        30.03R                  
CODY           PTSUNNY   52  44  74 N9        29.93F                  
GREYBULL       PTSUNNY   60  45  57 NW12      29.85R                  
WORLAND        SUNNY     53  45  74 SW3       29.87R                  
SHERIDAN       PTSUNNY   55  47  74 NW18      29.89R                  
BUFFALO        SUNNY     56  43  61 NW8       29.90S                  
GILLETTE       PTSUNNY   52  49  89 SW3       29.86S                  
HULETT         DRIZZLE   54  46  76 SW8       29.86S                  
NEWCASTLE      CLOUDY    50  46  87 CALM      29.87F                  

$$
WYZ014>020-022>026-101>103-241400-
...CENTRAL WYOMING...
  
CITY           SKY/WX    TMP DP  RH WIND       PRES   REMARKS
BIG PINEY      PTSUNNY   48  34  58 CALM      30.07S                  
PINEDALE       MOSUNNY   34  32  93 CALM      30.09R                  
DUBOIS         FAIR      45  30  57 NW8       30.00S                  
LANDER         PTSUNNY   56  36  47 CALM      29.92R                  
RIVERTON       PTSUNNY   58  38  47 W5        29.93R                  
CASPER         SUNNY     55  41  59 W8        29.91S                  
DOUGLAS        MOSUNNY   53  49  86 CALM      29.91S                  

$$
WYZ021-027>030-104>119-241400-
...SOUTHERN WYOMING...
  
CITY           SKY/WX    TMP DP  RH WIND       PRES   REMARKS
EVANSTON       MOSUNNY   47  32  56 W6        30.13R                  
KEMMERER       SUNNY     45  30  57 W10       30.11S                  
FORT BRIDGER   NOT AVBL                                               
ROCK SPRINGS   SUNNY     50  30  46 SW10      30.09R                  
DIXON          FAIR      49  38  66 N7        30.12S                  
RAWLINS        MOSUNNY   55  35  47 W20       30.03S                  
SARATOGA       FAIR      48  36  61 SW3       30.07S                  
LARAMIE        SUNNY     49  35  58 VRB3      30.04F                  
CHEYENNE       MOSUNNY   52  37  56 W9        30.01S                  
TORRINGTON     PTSUNNY   48  47  96 CALM      29.89S                  
PINE BLUFFS    FAIR      48  45  87 S8        29.97S                  

$$